Probability
0 0 0 0 0 0 0 0 0 0 0 0 0 0 0 0 0 0 0 0 0 0 0 0 0 0 0 0 0 0 0 0 0 0 0 0 0 0 0 0 0 0 0
1 1 0 0 0 0 0 0 0 0 0 0 0 0 0 0 0 0 0 0 0 0 0 0 0 0 0 0 0 0 0 0 0 0 0 0 0 0 0 0 0 0 0
3 2 1 1 1 0 0 0 0 0 0 0 0 0 0 0 0 0 0 0 0 0 0 0 0 0 0 0 0 0 0 0 0 0 0 0 0 0 0 0 0 0 0
5 4 4 3 2 1 1 0 0 0 0 0 0 0 0 0 0 0 0 0 0 0 0 0 0 0 0 0 0 0 0 0 0 0 0 0 0 0 0 0 0 0 0
4 5 6 5 4 3 3 2 1 0 0 0 0 0 0 0 0 0 0 0 0 0 1 0 0 0 0 0 0 0 0 0 0 0 0 0 0 0 0 0 0 0 0
4 5 6 6 6 6 5 5 4 2 1 1 1 0 0 0 0 0 0 0 0 0 0 0 0 0 0 0 1 1 0 0 0 0 0 0 0 0 0 0 0 0 0
5 6 7 7 7 7 6 6 6 5 3 3 3 2 1 0 0 0 0 0 0 0 0 0 0 0 0 0 1 1 0 0 0 0 0 0 0 0 0 0 0 0 0
8 9 9 9 8 8 7 7 8 8 7 6 6 6 4 2 1 0 0 0 0 0 0 0 0 0 0 0 0 0 0 0 0 0 0 0 0 0 0 0 0 0 0
9 10 11 11 10 10 10 9 9 9 9 8 8 8 6 4 2 1 0 0 0 0 0 0 0 0 0 0 0 0 0 0 0 0 0 0 0 0 0 0 0 0 0
9 11 12 12 12 12 12 11 10 10 10 9 8 7 6 5 3 2 1 0 0 0 0 0 0 0 0 0 0 0 0 0 0 0 0 0 0 0 0 0 0 0 0
8 10 12 14 14 14 14 13 11 10 10 9 8 7 6 4 3 2 1 0 0 0 0 0 0 0 0 0 0 0 0 0 0 0 0 0 0 0 0 0 0 0 0
9 9 11 13 14 15 16 15 13 11 11 10 9 8 6 4 3 2 1 0 0 0 0 0 0 0 0 0 0 0 0 0 0 0 0 0 0 0 0 0 0 0 0
11 10 10 13 14 15 15 15 14 12 11 9 9 8 6 3 2 2 1 0 0 0 0 0 0 0 0 0 0 0 0 0 0 0 0 0 0 0 0 0 0 0 0
10 9 9 12 13 13 12 13 12 10 8 7 7 7 5 3 2 2 1 0 0 0 0 0 0 0 0 0 0 0 0 0 0 0 0 0 0 0 0 0 0 0 0
7 6 7 9 11 11 10 9 8 6 5 5 5 6 5 4 3 2 1 0 0 0 0 0 0 0 0 0 0 0 0 0 0 0 0 0 0 0 0 0 0 0 0
4 4 5 6 8 8 7 7 5 5 4 4 4 4 4 3 2 1 0 0 0 0 0 0 0 0 0 0 0 0 0 0 0 0 0 0 0 0 0 0 0 0 0
1 2 3 4 5 5 5 5 5 6 6 6 5 4 4 3 1 0 0 0 0 0 0 0 0 0 0 0 0 0 0 0 0 0 0 0 0 0 0 0 0 0 0
0 1 2 3 3 3 2 4 6 8 8 8 7 7 6 4 2 0 0 0 0 0 0 0 0 0 0 0 0 0 0 0 0 0 0 0 0 0 0 0 0 0 0
0 0 1 1 2 1 1 3 6 7 7 7 7 8 7 5 2 0 0 0 0 0 0 0 0 0 0 0 0 0 0 0 0 0 0 0 0 0 0 0 0 0 0
0 0 0 1 1 1 0 2 5 6 5 5 6 6 6 3 1 0 0 0 0 0 0 0 0 0 0 0 0 0 0 0 0 0 0 0 0 0 0 0 0 0 0
0 0 0 0 0 0 0 1 3 4 4 4 4 4 3 1 0 0 0 0 0 0 0 0 0 0 0 0 0 0 0 0 0 0 0 0 0 0 0 0 0 0 0
0 0 0 0 0 0 0 0 1 2 2 2 2 2 1 0 0 0 0 0 0 0 0 0 0 0 0 0 0 0 0 0 0 0 0 0 0 0 0 0 0 0 0
0 0 0 0 0 0 0 0 0 0 1 1 1 1 0 0 0 0 0 0 0 0 0 0 0 0 0 0 0 0 0 0 0 0 0 0 0 0 0 0 0 0 0
0 0 0 0 0 0 0 0 0 0 0 0 0 0 0 0 0 0 0 0 0 0 0 0 0 0 0 0 0 0 0 0 0 0 0 0 0 0 0 0 0 0 0
0 0 0 0 0 0 0 0 0 0 0 0 0 0 0 0 0 0 0 0 0 0 0 0 0 0 0 0 0 0 0 0 0 0 0 0 0 0 0 0 0 0 0
0 0 0 0 0 0 0 0 0 0 0 0 0 0 0 0 0 0 0 0 0 0 0 0 0 0 0 0 0 0 0 0 0 0 0 0 0 0 0 0 0 0 0
Wind_Speed
8 8 6 6 7 6 7 6 6 7 6 6 5 4 4 4 3 3 3 4 4 4 5 6 6 6 6 6 6 5 5 5 5 5 5 6 6 6 6 6 6 5 5
8 7 7 7 6 6 6 6 7 6 5 5 5 5 5 4 4 4 3 4 6 5 6 7 7 7 7 7 7 7 7 7 7 7 7 8 8 8 8 8 8 8 7
9 8 7 7 7 7 7 6 6 5 5 4 5 5 4 5 4 5 4 3 4 6 7 8 8 8 7 7 7 7 7 8 8 8 8 8 9 9 9 9 9 9 9
10 8 7 7 7 6 6 6 6 6 5 5 5 4 4 4 6 5 5 4 4 4 5 7 7 7 7 8 8 8 7 7 8 9 9 9 9 9 10 10 10 10 10
11 9 7 7 8 7 6 6 6 6 5 5 4 4 4 4 5 5 6 5 5 4 4 4 5 5 6 7 8 8 8 8 7 7 8 8 9 9 10 10 10 11 11
11 10 7 9 9 7 7 7 7 6 5 4 4 4 5 5 4 5 5 5 4 4 4 4 4 4 5 6 7 7 8 8 7 7 7 7 8 8 9 9 10 10 11
11 10 8 9 9 8 9 9 7 8 6 5 4 4 5 5 5 4 4 4 4 3 3 3 3 3 2 4 4 6 7 8 8 7 7 7 7 8 9 9 10 10 10
11 9 10 8 9 8 9 9 8 6 5 5 5 4 4 5 5 4 4 3 3 2 3 3 3 3 3 2 1 2 5 7 7 7 6 7 7 8 8 9 10 10 10
11 10 11 9 9 9 8 10 10 9 7 6 6 5 4 4 2 4 4 3 3 3 2 2 2 2 3 2 2 1 3 5 6 7 7 7 7 7 8 9 9 9 9
10 10 10 10 9 8 8 9 9 8 8 6 5 6 5 3 3 3 4 4 3 3 3 2 2 2 2 2 1 2 3 4 6 8 8 7 7 7 8 8 8 8 8
8 9 9 9 9 8 8 9 9 9 7 7 5 4 5 5 6 5 5 4 4 3 3 3 2 2 2 2 2 2 2 4 6 7 7 7 7 7 7 7 6 7 7
6 8 9 8 8 7 8 8 8 9 7 7 6 5 5 5 5 6 7 6 5 3 3 3 3 2 1 1 1 2 2 4 5 6 6 5 5 6 7 6 7 7 7
5 8 8 8 7 7 7 7 7 7 7 8 7 6 6 5 4 4 5 5 5 3 3 3 2 2 1 1 0 1 1 3 4 5 4 4 5 6 6 6 7 7 7
5 6 7 7 6 6 6 6 5 6 6 7 7 7 5 4 4 4 4 4 5 4 4 4 2 2 1 0 1 1 1 2 3 4 4 4 5 4 5 5 6 6 6
3 5 6 6 6 7 6 6 5 6 6 6 6 5 4 3 3 4 4 4 5 5 5 3 2 2 1 0 1 1 2 2 3 3 3 3 3 4 4 5 5 6 6
4 5 5 6 6 7 7 7 5 6 6 5 4 5 4 3 3 3 3 3 4 4 4 1 2 1 1 0 0 1 1 2 2 2 2 2 2 3 4 4 5 5 5
5 6 6 7 7 7 7 7 7 6 6 6 5 5 5 4 3 3 2 3 3 3 5 2 1 1 2 2 1 1 1 2 1 1 1 1 2 2 3 3 4 4 4
4 5 5 5 6 6 7 7 7 7 7 7 6 6 6 4 5 3 3 3 3 3 4 4 2 2 2 1 1 1 1 1 2 1 2 2 2 2 2 3 3 3 3
3 4 4 5 5 5 6 6 6 6 6 6 6 6 6 6 6 4 4 3 3 2 3 3 2 1 1 1 2 2 2 1 1 1 1 1 1 2 2 2 2 2 2
3 3 4 4 4 5 5 5 5 5 5 5 5 5 6 6 6 5 4 4 3 3 3 3 2 2 1 1 2 2 2 1 1 1 1 1 1 2 2 1 2 2 2
2 3 3 4 4 4 4 5 5 5 5 5 4 4 4 4 4 4 3 3 3 3 3 3 3 2 2 2 2 1 2 2 2 1 2 1 1 1 1 1 1 2 3
2 3 4 4 4 3 5 6 6 5 5 6 5 4 4 5 5 5 4 3 3 3 4 3 3 3 3 3 2 2 1 1 2 1 2 2 1 2 1 1 2 3 3
2 3 3 4 4 5 7 8 7 5 5 5 6 5 4 4 5 4 5 4 3 2 3 3 4 4 3 3 2 3 2 2 2 1 2 2 1 2 1 1 4 4 3
3 3 4 4 4 5 8 8 8 5 5 5 5 6 5 5 5 5 4 4 2 2 1 2 2 1 1 1 2 2 2 2 1 1 2 2 1 2 1 2 2 3 3
3 3 3 4 4 5 7 9 8 5 4 5 5 5 5 5 8 8 5 5 3 2 2 2 1 2 2 2 2 2 2 2 2 2 1 2 1 1 2 2 1 1 2
3 2 3 3 4 4 7 9 9 4 5 4 4 4 6 6 8 9 6 6 5 4 4 3 3 3 3 3 3 2 2 2 2 1 2 1 1 1 2 1 1 2 2
Wind_Direction
171 168 170 172 177 176 178 181 186 181 185 185 189 192 196 202 206 215 175 178 235 250 241 237 235 233 231 233 233 235 237 240 244 245 250 254 256 261 266 268 270 274 280
175 174 175 178 181 184 184 187 189 187 193 197 199 203 212 215 222 229 236 191 207 238 249 247 245 244 243 243 242 240 238 240 244 249 253 255 256 257 258 261 263 263 265
180 179 182 184 185 185 186 190 190 199 199 203 212 219 226 232 233 236 237 245 220 212 233 245 249 251 253 255 254 251 243 241 244 249 253 257 258 259 259 259 262 264 264
184 183 187 190 187 185 189 191 194 199 201 210 217 219 228 232 244 246 242 240 245 239 217 222 244 253 259 262 263 262 256 248 245 249 252 256 260 264 265 262 263 263 264
188 189 191 189 187 189 193 192 201 204 206 214 225 232 238 241 247 247 248 247 246 249 254 198 216 249 263 266 270 270 267 261 255 252 252 256 261 264 266 267 266 265 265
192 192 191 191 188 190 194 196 199 204 212 215 223 238 246 247 248 245 247 245 242 242 247 250 228 214 230 258 268 273 274 268 265 262 259 260 262 267 273 272 271 271 268
194 195 193 194 193 195 197 198 199 203 206 205 221 235 238 236 238 235 236 237 227 228 239 246 254 260 223 217 254 273 277 277 277 273 266 264 268 272 275 278 279 277 275
198 197 198 197 197 198 199 200 197 202 200 199 214 227 235 219 211 222 224 229 229 214 227 240 243 249 266 261 172 268 284 283 283 278 276 275 278 281 285 287 287 285 282
200 201 204 202 200 202 202 201 199 202 203 200 212 220 230 232 202 196 208 218 217 216 217 218 239 255 264 271 279 274 297 291 286 285 283 284 286 288 292 294 296 298 296
200 201 203 203 201 202 205 205 204 206 207 205 205 228 248 273 245 228 201 212 224 237 232 221 231 245 267 271 284 328 315 296 292 291 289 289 288 293 298 300 304 309 309
202 200 200 201 201 202 205 202 201 204 206 210 207 202 218 233 245 253 251 232 225 228 237 246 253 254 254 262 275 317 311 294 290 290 293 295 301 309 314 318 321 323 319
199 201 200 201 202 202 206 206 203 204 206 211 212 209 210 213 216 227 245 251 249 232 227 237 242 240 238 250 281 337 312 302 300 297 296 305 325 333 334 336 334 332 328
195 200 199 198 199 200 203 202 203 203 206 211 213 213 218 227 227 230 244 256 261 251 228 228 224 225 214 248 241 344 307 320 320 319 318 333 342 347 349 345 341 339 336
197 198 198 196 196 196 196 198 203 203 204 214 219 216 214 218 218 226 235 243 251 244 232 227 190 197 190 241 45 311 305 352 339 337 340 345 351 359 353 344 340 341 342
199 199 196 195 192 192 193 194 202 204 204 211 211 210 212 215 213 222 227 232 244 256 249 220 193 169 155 82 56 305 314 22 349 344 348 356 1 355 349 344 343 345 344
200 198 200 199 197 192 192 197 195 199 199 201 198 197 203 201 202 207 216 225 237 250 256 214 197 167 167 187 108 298 333 358 321 325 331 347 352 346 338 336 338 337 338
202 203 203 200 198 195 194 195 195 193 195 197 189 187 190 185 186 189 199 211 223 231 246 240 181 194 220 227 217 283 315 309 320 320 306 307 323 327 336 337 337 342 346
209 209 206 203 198 196 196 197 193 189 192 192 190 186 187 182 188 189 193 204 213 223 239 240 216 209 236 247 260 271 296 307 302 326 312 307 314 321 331 335 337 347 354
213 210 204 200 193 191 192 195 190 187 188 188 190 189 188 186 191 189 196 201 202 209 229 233 221 197 223 228 260 261 255 260 296 318 301 294 307 318 331 333 339 348 354
212 211 206 201 194 189 188 185 182 181 180 179 182 185 186 190 192 186 192 195 196 203 209 218 212 207 215 217 241 248 241 242 256 272 269 303 312 308 322 334 347 343 337
219 211 204 194 189 189 189 185 181 178 174 168 170 176 174 177 178 179 182 185 192 204 205 209 213 211 213 213 228 226 255 266 241 245 279 257 260 256 245 271 304 310 304
220 211 205 194 189 187 174 179 179 174 170 170 169 165 157 163 161 165 166 175 196 207 209 209 219 220 221 218 214 223 241 249 238 164 274 257 250 252 250 271 303 294 277
227 218 212 201 195 183 177 180 179 176 176 174 171 168 164 164 166 161 156 158 172 203 236 231 226 227 222 205 204 217 226 249 262 39 283 253 230 257 256 272 296 283 254
227 219 211 202 194 186 181 180 174 178 174 174 177 176 175 175 175 169 168 169 168 167 202 227 235 232 223 190 203 213 218 237 260 240 255 261 254 266 274 264 276 283 243
229 219 209 202 196 190 183 179 176 170 169 173 175 179 180 183 178 177 177 178 179 170 141 133 112 126 131 152 172 174 190 220 236 196 194 261 279 290 277 249 213 308 277
229 212 208 209 205 197 183 184 182 174 171 171 173 178 189 193 184 187 192 188 197 189 171 163 163 161 168 166 183 208 206 225 240 226 158 241 263 293 277 238 248 254 249